SCP
0 0 -0 0 0 0 0 0 0 0 0 0 0 0 0 0 0 0 0 0 1 0 0 0 0 0 0 0 0 0 0 0 0 0 0 0 0 0 0 0 0 0 0
0 0 0 0 0 0 0 0 0 0 0 -0 0 0 0 0 0 0 0 0 1 1 0 0 0 0 1 1 1 1 0 0 0 0 0 0 0 1 1 0 0 0 0
0 0 -0 0 0 0 0 -0 -0 -0 0 -0 -0 0 0 1 0 0 0 0 1 0 1 0 0 1 1 1 1 1 1 1 1 1 0 0 0 0 0 0 0 0 0
-0 0 0 0 0 0 -0 -0 0 0 0 0 -0 -0 0 0 0 0 0 0 0 0 1 0 0 1 1 1 1 1 1 1 1 1 1 1 1 1 1 1 0 0 0
-0 -0 0 0 0 0 0 -0 -0 0 0 0 -0 0 0 0 0 0 0 0 0 0 0 0 0 0 0 0 0 0 0 0 0 0 1 1 1 2 1 0 0 0 0
-0 -0 0 0 -0 -0 -0 -0 -0 0 0 0 0 0 0 0 0 0 0 0 0 0 0 0 0 0 0 0 0 0 0 0 0 0 0 0 0 1 1 0 0 0 0
0 0 0 0 0 0 0 0 0 0 0 0 0 0 0 0 0 0 0 0 0 0 0 0 0 0 0 0 0 0 0 0 0 0 0 0 0 0 0 1 0 0 0
0 0 0 0 0 0 0 0 0 0 0 0 0 0 0 0 0 0 0 0 0 0 0 0 0 0 0 0 0 0 0 0 0 0 0 0 0 0 0 0 1 0 0
0 0 0 0 0 0 0 0 0 0 0 0 0 0 0 0 0 0 0 0 0 0 0 0 0 0 0 0 0 0 0 0 0 0 0 0 0 0 0 0 0 0 0
0 0 0 0 0 0 0 0 0 0 0 0 0 0 0 0 0 0 0 0 0 0 0 0 0 0 0 0 0 0 0 0 0 0 0 0 0 0 0 0 0 0 0
0 0 0 0 0 0 0 0 0 0 0 0 0 0 0 0 0 0 0 0 0 0 0 0 0 0 0 0 0 0 0 0 0 0 0 0 0 0 0 0 0 0 0
0 0 -0 0 0 0 0 1 1 0 0 0 0 0 0 0 0 0 0 0 0 0 0 0 0 0 0 0 0 0 0 0 0 0 0 0 0 0 0 0 0 0 0
0 0 0 0 0 0 1 1 1 1 1 0 0 0 0 0 0 0 0 0 0 0 0 0 0 0 0 0 0 0 0 -0 0 0 0 0 0 0 0 0 0 0 0
0 0 0 0 0 0 1 1 1 1 1 0 0 0 0 0 0 0 0 0 0 0 0 0 0 0 0 0 0 0 0 0 0 0 0 0 0 0 0 0 0 0 0
0 0 0 0 0 0 0 0 0 0 1 0 0 0 0 0 0 0 0 0 0 0 0 0 0 0 0 0 0 -0 0 0 0 0 0 0 0 0 0 0 0 0 0
0 0 0 0 0 0 0 0 0 0 0 1 0 0 0 0 0 0 0 0 0 0 0 0 0 0 0 0 -0 -0 0 0 0 -0 0 0 0 0 0 0 0 0 0
0 0 0 0 0 0 0 0 0 0 0 0 0 0 0 0 0 0 0 0 0 0 0 0 0 0 0 0 -0 -0 0 0 0 0 0 0 0 0 0 0 0 0 0
0 0 0 0 0 0 0 0 0 0 0 0 0 0 0 0 0 0 0 0 0 0 0 0 0 0 0 0 0 -0 -0 -0 0 0 0 0 0 0 0 0 0 0 0
0 0 0 0 0 -0 0 0 0 0 0 0 0 0 0 0 0 0 0 0 0 0 0 0 0 0 0 0 0 -0 -0 -0 0 0 0 0 0 0 0 0 0 0 0
0 0 0 0 0 0 0 0 0 0 0 0 0 0 0 0 0 0 0 0 0 0 0 0 0 0 0 0 0 0 0 -0 0 0 0 0 0 0 0 0 0 0 0
0 0 0 0 0 0 0 0 0 0 0 0 0 0 0 0 0 0 0 0 0 0 0 0 0 0 0 0 0 0 0 0 0 0 0 0 0 0 0 0 0 0 0
0 0 0 0 0 0 0 0 0 0 0 0 0 0 0 0 0 0 0 0 0 0 0 0 0 0 0 0 0 0 0 0 0 0 0 0 0 0 0 0 0 0 0
0 0 0 0 0 0 0 0 0 0 0 0 0 0 0 0 0 0 0 0 0 0 0 0 0 0 0 0 0 0 0 0 0 0 0 0 0 0 0 0 0 0 0
0 0 0 0 0 0 0 0 0 0 0 0 0 0 0 0 0 0 0 0 0 0 0 0 0 0 0 0 0 0 0 0 0 0 0 0 0 0 0 0 0 0 0
0 0 0 0 0 0 0 0 0 0 0 0 0 0 0 0 0 0 0 0 0 0 0 0 0 0 0 0 0 0 0 0 0 0 0 0 0 0 0 0 0 0 0
0 0 0 0 0 0 0 0 0 0 0 0 0 0 0 0 0 0 0 0 0 0 0 0 0 0 0 0 -0 0 0 0 0 0 0 0 0 0 0 0 0 0 0
Wind_Speed_500mb
6 9 11 12 10 13 6 5 9 15 15 18 22 29 30 26 22 26 25 29 28 25 22 18 15 13 16 14 13 15 24 32 36 40 45 48 49 51 51 52 51 44 46
6 6 11 12 9 8 9 4 6 13 14 19 27 31 33 34 29 26 28 30 30 31 26 21 21 19 23 22 17 16 20 26 32 38 44 50 53 51 52 52 53 51 52
17 3 7 8 9 3 6 14 13 14 17 20 26 34 34 33 33 29 26 26 34 33 28 27 26 25 32 29 22 21 24 27 31 34 39 47 52 49 59 51 51 55 55
8 9 4 9 6 10 13 11 16 18 17 21 38 41 35 30 33 32 26 26 33 34 34 30 30 30 32 26 30 22 24 23 27 30 34 37 43 47 49 68 57 53 55
3 2 5 5 8 18 12 17 21 17 15 21 31 29 24 19 33 31 24 28 30 32 30 27 21 16 19 26 27 27 29 30 26 27 29 32 32 34 42 47 66 72 56
2 6 10 12 11 9 11 8 15 15 18 23 22 18 23 19 13 15 24 30 28 27 22 21 18 13 13 18 20 25 26 26 25 23 22 25 28 29 27 42 44 65 57
9 8 12 15 11 10 8 6 9 12 14 15 7 2 5 4 7 14 18 25 26 21 21 20 17 14 12 17 16 19 20 26 26 25 20 19 19 19 20 29 47 59 59
11 15 15 13 12 12 7 9 10 9 14 14 12 1 4 2 4 11 13 23 25 26 23 22 22 20 16 22 23 25 24 28 31 30 27 26 24 16 10 19 23 40 56
12 10 11 10 12 15 10 15 15 14 19 14 8 3 6 9 14 7 15 25 28 29 28 28 27 25 24 24 31 29 34 32 31 32 31 31 28 22 11 10 21 28 51
20 18 17 19 18 18 18 16 20 20 22 17 10 10 11 10 14 14 24 35 34 29 32 34 29 27 30 29 33 28 37 25 28 26 26 23 28 21 20 14 16 24 30
26 23 26 27 30 29 24 22 23 22 22 20 18 19 19 18 38 25 23 28 29 28 25 33 30 26 26 24 21 15 19 19 25 25 27 32 33 22 22 22 17 23 33
27 29 30 31 33 30 31 28 27 29 30 28 27 28 31 26 30 9 26 32 34 30 31 30 28 22 25 20 16 14 16 22 26 29 33 27 23 22 28 27 21 26 30
34 31 31 31 24 25 28 34 33 35 34 35 33 37 37 32 27 20 24 34 32 34 28 30 24 20 21 17 16 15 16 19 19 19 19 17 14 16 31 27 23 27 29
41 39 35 27 28 27 32 38 39 40 39 39 38 41 43 42 34 24 16 28 35 31 33 30 20 21 19 13 16 15 18 13 15 13 13 13 13 16 26 25 24 30 29
50 50 52 49 41 38 38 41 44 49 47 42 40 41 41 49 46 31 25 28 31 30 33 28 25 17 18 14 15 14 10 16 11 10 13 14 15 16 20 24 26 29 33
45 40 38 35 32 34 39 46 53 47 46 44 42 43 33 37 51 41 36 20 28 30 33 26 24 21 19 16 14 14 11 14 5 7 14 20 21 20 21 23 29 28 35
33 32 34 36 42 43 39 37 38 43 48 48 50 50 34 35 46 48 37 23 25 23 24 19 19 23 24 19 14 14 14 13 6 5 9 15 21 24 20 24 28 30 34
25 30 33 33 32 32 33 37 45 50 46 43 45 53 38 37 38 45 37 20 20 22 17 15 17 24 30 23 19 17 19 15 12 6 7 12 17 20 23 26 28 30 34
21 22 25 28 34 38 39 39 40 41 43 51 44 43 50 27 31 34 33 17 20 21 15 8 9 30 39 29 25 22 22 17 15 10 9 10 18 18 26 29 29 30 33
30 30 32 33 35 42 44 47 44 47 52 45 36 33 30 25 28 26 23 15 18 21 16 7 11 36 40 29 26 26 25 23 18 15 10 8 10 19 27 27 29 32 35
34 35 36 36 41 49 53 51 50 51 47 40 36 32 20 21 25 23 20 16 16 20 17 13 18 39 41 35 26 22 21 18 18 19 19 19 18 15 24 31 33 34 36
40 39 45 49 52 53 48 43 41 41 39 38 35 30 24 21 20 26 19 17 11 12 17 20 16 32 38 32 26 20 16 18 14 16 24 26 28 26 29 34 34 36 38
37 40 45 46 40 36 32 32 28 29 33 29 21 22 22 23 23 24 19 19 12 12 10 9 11 21 27 23 24 21 16 16 12 3 10 19 23 28 36 36 39 37 39
28 28 29 31 32 27 25 21 19 22 24 24 19 17 17 19 19 19 17 17 10 14 15 20 15 11 12 16 14 9 8 10 16 13 8 12 19 24 34 40 43 43 42
20 20 25 26 21 17 15 14 18 26 17 13 15 17 11 8 15 17 18 14 10 13 15 23 23 23 18 19 22 20 17 13 16 16 17 15 16 21 27 44 48 48 48
14 15 22 22 18 16 18 15 13 8 12 22 22 16 8 17 14 13 14 6 7 9 11 16 27 34 28 25 26 22 17 12 14 16 21 24 21 25 24 31 53 57 56
Wind_Direction_500mb
34 131 185 212 220 228 227 279 257 245 253 264 263 258 255 259 269 268 247 248 244 239 229 231 245 266 273 263 264 240 236 235 234 228 228 229 225 221 216 208 203 203 195
47 141 180 161 177 218 220 221 241 249 259 279 281 266 260 253 261 262 254 258 252 240 238 241 258 273 266 256 258 257 233 228 231 231 226 227 228 223 217 220 206 205 201
57 35 133 206 210 27 252 245 271 296 274 291 293 281 275 253 259 264 252 247 254 243 246 253 263 271 265 246 240 245 243 231 225 230 231 228 227 221 214 217 215 208 207
48 30 44 78 101 326 290 266 278 290 274 296 292 279 275 254 262 265 255 259 260 247 254 251 260 270 258 249 256 244 250 243 231 227 229 229 227 224 220 218 213 208 208
70 281 338 336 339 342 325 259 271 293 279 312 307 288 254 278 276 265 257 258 257 238 244 252 265 271 240 254 251 258 253 248 230 221 223 226 223 222 211 211 209 212 209
253 332 278 296 298 346 8 266 272 303 306 332 310 281 247 260 262 263 264 266 271 249 240 263 269 261 258 257 256 257 247 245 225 227 225 235 229 219 206 207 201 214 211
242 282 261 292 269 296 281 2 359 328 302 333 355 57 233 227 216 235 263 276 283 270 245 262 270 265 280 289 296 241 250 240 235 229 220 233 238 227 206 202 202 210 195
236 277 287 282 253 276 261 278 330 319 332 331 3 322 241 123 322 271 259 260 269 266 262 267 256 266 266 285 288 273 259 231 234 220 231 249 243 235 210 213 206 202 196
264 297 310 296 277 296 289 307 328 330 320 320 336 6 221 226 285 291 295 285 269 271 261 263 254 264 267 277 275 266 260 248 225 222 249 252 240 233 236 224 209 201 210
253 272 290 288 291 296 300 310 327 324 322 313 294 269 260 258 316 269 264 269 280 269 256 252 255 253 257 266 269 259 247 237 218 236 238 247 244 243 246 244 234 207 208
241 268 274 282 285 282 296 305 314 315 316 311 286 270 256 257 334 276 283 282 279 287 274 244 242 245 263 277 269 242 232 201 209 233 250 269 268 249 232 246 233 216 199
244 261 273 281 277 266 282 297 298 301 298 293 299 278 275 263 333 302 288 288 279 284 268 254 248 251 264 263 259 226 215 225 226 236 251 256 254 237 227 237 223 215 199
252 264 285 292 272 266 275 289 296 299 297 298 285 290 286 283 293 313 286 281 265 277 262 259 247 251 255 250 250 207 209 205 218 225 230 233 225 211 208 220 211 206 199
259 267 272 278 271 266 275 286 293 295 296 294 291 294 301 302 274 288 317 275 258 271 265 259 246 250 238 225 204 201 200 196 201 212 200 205 205 202 212 211 202 198 189
264 268 274 279 280 279 279 284 292 297 298 295 289 297 304 306 292 270 288 277 247 261 272 263 254 239 221 211 227 198 194 192 173 195 220 212 205 197 207 204 197 196 186
266 269 275 283 287 286 287 291 295 298 297 295 288 281 283 299 302 282 285 272 248 257 272 265 247 231 203 202 212 193 216 203 211 188 195 208 204 197 201 199 193 190 190
268 270 273 283 289 290 289 294 300 303 303 305 296 291 282 279 287 290 272 266 243 248 262 269 238 213 198 200 201 178 190 190 188 219 205 203 196 196 197 195 190 187 188
276 276 278 283 288 295 300 300 302 302 306 310 305 293 277 273 284 283 268 260 243 246 262 279 204 201 189 194 189 176 175 175 176 188 183 163 177 191 189 192 191 189 187
271 275 282 291 293 295 295 298 301 302 302 309 311 312 306 271 282 284 261 227 229 232 244 267 228 189 183 190 188 187 181 195 190 171 172 185 192 186 191 194 188 185 183
274 278 285 287 291 293 299 301 300 303 306 304 306 312 311 275 285 281 259 230 219 225 215 222 174 176 180 180 189 194 191 196 205 204 205 200 167 187 194 191 187 185 183
285 288 286 287 293 293 299 297 296 298 300 301 301 299 292 270 287 272 256 229 216 223 210 204 173 179 183 187 180 189 196 205 222 234 230 229 234 215 195 192 190 188 189
284 290 293 293 295 298 297 297 298 294 300 303 299 293 286 273 279 264 246 227 218 229 218 208 192 194 193 190 184 178 206 219 234 239 236 239 244 220 198 196 195 195 193
287 287 293 300 301 304 299 296 293 301 313 315 313 296 289 278 269 244 243 223 211 216 220 233 201 191 187 184 201 211 229 243 229 286 209 220 224 218 207 197 198 199 195
285 293 300 302 306 298 292 298 312 317 319 320 323 307 284 270 259 235 228 225 223 215 208 199 200 196 177 186 213 215 226 229 242 241 212 195 206 205 207 200 199 200 196
285 302 313 322 319 308 299 305 311 321 335 358 336 315 288 261 217 245 221 220 225 213 196 186 193 211 204 194 209 203 212 249 258 246 237 218 207 196 200 199 200 201 199
288 311 326 332 320 305 292 300 317 359 360 3 5 8 6 216 223 195 201 208 229 225 200 193 195 204 208 195 207 214 225 246 261 256 235 229 219 218 205 203 203 200 200
Wind_Speed_850mb
6 9 11 12 10 13 6 5 9 15 15 18 22 29 30 26 22 26 25 29 28 25 22 18 15 13 16 14 13 15 24 32 36 40 45 48 49 51 51 52 51 44 46
6 6 11 12 9 8 9 4 6 13 14 19 27 31 33 34 29 26 28 30 30 31 26 21 21 19 23 22 17 16 20 26 32 38 44 50 53 51 52 52 53 51 52
17 3 7 8 9 3 6 14 13 14 17 20 26 34 34 33 33 29 26 26 34 33 28 27 26 25 32 29 22 21 24 27 31 34 39 47 52 49 59 51 51 55 55
8 9 4 9 6 10 13 11 16 18 17 21 38 41 35 30 33 32 26 26 33 34 34 30 30 30 32 26 30 22 24 23 27 30 34 37 43 47 49 68 57 53 55
3 2 5 5 8 18 12 17 21 17 15 21 31 29 24 19 33 31 24 28 30 32 30 27 21 16 19 26 27 27 29 30 26 27 29 32 32 34 42 47 66 72 56
2 6 10 12 11 9 11 8 15 15 18 23 22 18 23 19 13 15 24 30 28 27 22 21 18 13 13 18 20 25 26 26 25 23 22 25 28 29 27 42 44 65 57
9 8 12 15 11 10 8 6 9 12 14 15 7 2 5 4 7 14 18 25 26 21 21 20 17 14 12 17 16 19 20 26 26 25 20 19 19 19 20 29 47 59 59
11 15 15 13 12 12 7 9 10 9 14 14 12 1 4 2 4 11 13 23 25 26 23 22 22 20 16 22 23 25 24 28 31 30 27 26 24 16 10 19 23 40 56
12 10 11 10 12 15 10 15 15 14 19 14 8 3 6 9 14 7 15 25 28 29 28 28 27 25 24 24 31 29 34 32 31 32 31 31 28 22 11 10 21 28 51
20 18 17 19 18 18 18 16 20 20 22 17 10 10 11 10 14 14 24 35 34 29 32 34 29 27 30 29 33 28 37 25 28 26 26 23 28 21 20 14 16 24 30
26 23 26 27 30 29 24 22 23 22 22 20 18 19 19 18 38 25 23 28 29 28 25 33 30 26 26 24 21 15 19 19 25 25 27 32 33 22 22 22 17 23 33
27 29 30 31 33 30 31 28 27 29 30 28 27 28 31 26 30 9 26 32 34 30 31 30 28 22 25 20 16 14 16 22 26 29 33 27 23 22 28 27 21 26 30
34 31 31 31 24 25 28 34 33 35 34 35 33 37 37 32 27 20 24 34 32 34 28 30 24 20 21 17 16 15 16 19 19 19 19 17 14 16 31 27 23 27 29
41 39 35 27 28 27 32 38 39 40 39 39 38 41 43 42 34 24 16 28 35 31 33 30 20 21 19 13 16 15 18 13 15 13 13 13 13 16 26 25 24 30 29
50 50 52 49 41 38 38 41 44 49 47 42 40 41 41 49 46 31 25 28 31 30 33 28 25 17 18 14 15 14 10 16 11 10 13 14 15 16 20 24 26 29 33
45 40 38 35 32 34 39 46 53 47 46 44 42 43 33 37 51 41 36 20 28 30 33 26 24 21 19 16 14 14 11 14 5 7 14 20 21 20 21 23 29 28 35
33 32 34 36 42 43 39 37 38 43 48 48 50 50 34 35 46 48 37 23 25 23 24 19 19 23 24 19 14 14 14 13 6 5 9 15 21 24 20 24 28 30 34
25 30 33 33 32 32 33 37 45 50 46 43 45 53 38 37 38 45 37 20 20 22 17 15 17 24 30 23 19 17 19 15 12 6 7 12 17 20 23 26 28 30 34
21 22 25 28 34 38 39 39 40 41 43 51 44 43 50 27 31 34 33 17 20 21 15 8 9 30 39 29 25 22 22 17 15 10 9 10 18 18 26 29 29 30 33
30 30 32 33 35 42 44 47 44 47 52 45 36 33 30 25 28 26 23 15 18 21 16 7 11 36 40 29 26 26 25 23 18 15 10 8 10 19 27 27 29 32 35
34 35 36 36 41 49 53 51 50 51 47 40 36 32 20 21 25 23 20 16 16 20 17 13 18 39 41 35 26 22 21 18 18 19 19 19 18 15 24 31 33 34 36
40 39 45 49 52 53 48 43 41 41 39 38 35 30 24 21 20 26 19 17 11 12 17 20 16 32 38 32 26 20 16 18 14 16 24 26 28 26 29 34 34 36 38
37 40 45 46 40 36 32 32 28 29 33 29 21 22 22 23 23 24 19 19 12 12 10 9 11 21 27 23 24 21 16 16 12 3 10 19 23 28 36 36 39 37 39
28 28 29 31 32 27 25 21 19 22 24 24 19 17 17 19 19 19 17 17 10 14 15 20 15 11 12 16 14 9 8 10 16 13 8 12 19 24 34 40 43 43 42
20 20 25 26 21 17 15 14 18 26 17 13 15 17 11 8 15 17 18 14 10 13 15 23 23 23 18 19 22 20 17 13 16 16 17 15 16 21 27 44 48 48 48
14 15 22 22 18 16 18 15 13 8 12 22 22 16 8 17 14 13 14 6 7 9 11 16 27 34 28 25 26 22 17 12 14 16 21 24 21 25 24 31 53 57 56
Wind_Direction_850mb
34 131 185 212 220 228 227 279 257 245 253 264 263 258 255 259 269 268 247 248 244 239 229 231 245 266 273 263 264 240 236 235 234 228 228 229 225 221 216 208 203 203 195
47 141 180 161 177 218 220 221 241 249 259 279 281 266 260 253 261 262 254 258 252 240 238 241 258 273 266 256 258 257 233 228 231 231 226 227 228 223 217 220 206 205 201
57 35 133 206 210 27 252 245 271 296 274 291 293 281 275 253 259 264 252 247 254 243 246 253 263 271 265 246 240 245 243 231 225 230 231 228 227 221 214 217 215 208 207
48 30 44 78 101 326 290 266 278 290 274 296 292 279 275 254 262 265 255 259 260 247 254 251 260 270 258 249 256 244 250 243 231 227 229 229 227 224 220 218 213 208 208
70 281 338 336 339 342 325 259 271 293 279 312 307 288 254 278 276 265 257 258 257 238 244 252 265 271 240 254 251 258 253 248 230 221 223 226 223 222 211 211 209 212 209
253 332 278 296 298 346 8 266 272 303 306 332 310 281 247 260 262 263 264 266 271 249 240 263 269 261 258 257 256 257 247 245 225 227 225 235 229 219 206 207 201 214 211
242 282 261 292 269 296 281 2 359 328 302 333 355 57 233 227 216 235 263 276 283 270 245 262 270 265 280 289 296 241 250 240 235 229 220 233 238 227 206 202 202 210 195
236 277 287 282 253 276 261 278 330 319 332 331 3 322 241 123 322 271 259 260 269 266 262 267 256 266 266 285 288 273 259 231 234 220 231 249 243 235 210 213 206 202 196
264 297 310 296 277 296 289 307 328 330 320 320 336 6 221 226 285 291 295 285 269 271 261 263 254 264 267 277 275 266 260 248 225 222 249 252 240 233 236 224 209 201 210
253 272 290 288 291 296 300 310 327 324 322 313 294 269 260 258 316 269 264 269 280 269 256 252 255 253 257 266 269 259 247 237 218 236 238 247 244 243 246 244 234 207 208
241 268 274 282 285 282 296 305 314 315 316 311 286 270 256 257 334 276 283 282 279 287 274 244 242 245 263 277 269 242 232 201 209 233 250 269 268 249 232 246 233 216 199
244 261 273 281 277 266 282 297 298 301 298 293 299 278 275 263 333 302 288 288 279 284 268 254 248 251 264 263 259 226 215 225 226 236 251 256 254 237 227 237 223 215 199
252 264 285 292 272 266 275 289 296 299 297 298 285 290 286 283 293 313 286 281 265 277 262 259 247 251 255 250 250 207 209 205 218 225 230 233 225 211 208 220 211 206 199
259 267 272 278 271 266 275 286 293 295 296 294 291 294 301 302 274 288 317 275 258 271 265 259 246 250 238 225 204 201 200 196 201 212 200 205 205 202 212 211 202 198 189
264 268 274 279 280 279 279 284 292 297 298 295 289 297 304 306 292 270 288 277 247 261 272 263 254 239 221 211 227 198 194 192 173 195 220 212 205 197 207 204 197 196 186
266 269 275 283 287 286 287 291 295 298 297 295 288 281 283 299 302 282 285 272 248 257 272 265 247 231 203 202 212 193 216 203 211 188 195 208 204 197 201 199 193 190 190
268 270 273 283 289 290 289 294 300 303 303 305 296 291 282 279 287 290 272 266 243 248 262 269 238 213 198 200 201 178 190 190 188 219 205 203 196 196 197 195 190 187 188
276 276 278 283 288 295 300 300 302 302 306 310 305 293 277 273 284 283 268 260 243 246 262 279 204 201 189 194 189 176 175 175 176 188 183 163 177 191 189 192 191 189 187
271 275 282 291 293 295 295 298 301 302 302 309 311 312 306 271 282 284 261 227 229 232 244 267 228 189 183 190 188 187 181 195 190 171 172 185 192 186 191 194 188 185 183
274 278 285 287 291 293 299 301 300 303 306 304 306 312 311 275 285 281 259 230 219 225 215 222 174 176 180 180 189 194 191 196 205 204 205 200 167 187 194 191 187 185 183
285 288 286 287 293 293 299 297 296 298 300 301 301 299 292 270 287 272 256 229 216 223 210 204 173 179 183 187 180 189 196 205 222 234 230 229 234 215 195 192 190 188 189
284 290 293 293 295 298 297 297 298 294 300 303 299 293 286 273 279 264 246 227 218 229 218 208 192 194 193 190 184 178 206 219 234 239 236 239 244 220 198 196 195 195 193
287 287 293 300 301 304 299 296 293 301 313 315 313 296 289 278 269 244 243 223 211 216 220 233 201 191 187 184 201 211 229 243 229 286 209 220 224 218 207 197 198 199 195
285 293 300 302 306 298 292 298 312 317 319 320 323 307 284 270 259 235 228 225 223 215 208 199 200 196 177 186 213 215 226 229 242 241 212 195 206 205 207 200 199 200 196
285 302 313 322 319 308 299 305 311 321 335 358 336 315 288 261 217 245 221 220 225 213 196 186 193 211 204 194 209 203 212 249 258 246 237 218 207 196 200 199 200 201 199
288 311 326 332 320 305 292 300 317 359 360 3 5 8 6 216 223 195 201 208 229 225 200 193 195 204 208 195 207 214 225 246 261 256 235 229 219 218 205 203 203 200 200